Theta_e
308 309 309 309 309 309 309 309 309 310 310 311 312 312 313 314 315 314 311 315 314 312 313 314 314 315 315 313 311 306 307 308 312 311 314 313 313 312 309 310 310 311 311 310 313
308 309 309 309 310 310 309 310 310 311 312 313 314 314 314 314 315 314 314 314 313 313 313 313 313 313 310 314 312 307 305 308 309 312 315 313 313 312 312 310 312 310 309 311 311
309 309 309 310 310 310 311 311 312 314 314 315 316 316 315 313 313 312 313 314 312 312 314 315 314 313 313 314 315 311 309 309 313 312 313 313 312 311 312 313 310 311 308 305 303
309 309 310 311 311 312 314 315 316 316 317 318 318 317 315 313 318 313 312 311 311 313 314 314 311 313 312 313 313 315 314 312 314 313 313 314 312 312 311 311 308 306 303 302 301
309 311 313 313 313 314 315 316 318 319 320 320 319 316 313 312 313 316 312 311 310 312 314 312 313 312 313 312 312 315 314 312 312 310 310 310 311 312 310 307 303 303 302 300 300
311 312 314 314 314 314 316 317 320 320 321 321 318 314 312 312 314 316 315 312 311 312 313 312 311 310 312 312 312 310 311 310 309 310 310 311 310 310 307 304 303 302 300 299 299
313 314 314 314 314 315 317 319 321 321 321 320 315 313 313 311 313 315 314 312 312 312 311 312 312 312 311 312 310 311 311 308 309 309 309 308 312 310 309 302 301 301 299 299 298
315 315 315 315 315 316 317 320 321 321 321 316 311 313 312 312 312 315 314 314 313 313 313 313 313 311 312 310 307 310 308 310 310 310 310 310 313 312 304 304 302 300 299 298 297
316 316 316 316 316 317 318 321 321 320 318 314 314 312 313 309 311 313 313 312 313 312 311 312 311 308 309 308 307 306 310 309 309 309 311 310 311 310 303 303 301 299 298 297 296
317 317 317 316 316 317 319 321 320 317 315 315 316 314 311 309 309 310 311 312 310 309 310 308 305 307 306 306 313 310 310 309 309 310 310 310 310 307 301 301 300 298 297 296 296
318 317 317 316 317 318 320 321 318 317 317 315 314 313 310 309 309 309 310 310 309 307 308 308 306 308 308 306 308 308 309 310 309 309 311 310 308 305 302 301 300 298 297 296 295
318 317 316 316 317 318 320 317 318 316 319 315 315 310 311 309 310 308 310 310 309 310 308 308 307 307 306 306 308 309 310 310 309 309 310 309 308 304 302 301 300 298 297 296 295
318 318 317 316 318 320 320 321 318 315 318 317 315 316 315 310 314 311 308 308 309 309 308 310 312 308 309 309 309 309 309 310 312 309 307 306 307 306 302 300 299 298 297 296 294
318 317 317 317 319 319 320 321 321 315 319 318 316 314 311 312 317 309 308 308 309 310 309 309 309 311 309 310 309 312 309 310 312 310 313 306 312 307 303 301 300 298 296 295 293
319 318 317 317 320 319 320 321 319 314 324 316 314 308 309 317 309 308 306 309 310 311 310 315 311 311 312 312 310 314 308 308 308 308 308 309 309 307 303 303 301 298 296 294 293
320 318 317 317 320 320 319 317 316 319 324 317 307 308 311 307 307 306 307 306 308 310 309 312 307 309 311 308 309 305 308 306 304 305 310 309 309 309 306 305 301 298 296 295 293
323 320 318 318 319 320 314 316 323 327 316 313 310 307 310 306 307 308 308 308 312 313 312 310 310 308 307 308 307 308 311 315 311 310 313 307 307 308 307 304 301 300 297 294 293
323 322 319 318 319 319 314 323 326 323 320 309 308 307 309 306 307 307 308 311 307 310 311 314 316 309 307 310 310 309 311 314 310 311 311 308 314 313 303 300 300 299 296 294 292
321 319 319 318 320 319 318 327 325 321 319 310 309 308 308 307 306 308 307 309 311 307 314 314 317 306 307 307 309 309 311 308 309 301 309 310 308 305 301 300 298 297 295 294 292
319 318 319 319 320 318 321 323 323 319 316 310 317 309 309 310 308 307 307 307 310 307 310 313 314 309 307 307 307 310 308 314 309 308 306 307 309 307 305 302 299 298 296 294 293
318 317 318 320 319 320 324 321 322 318 315 314 316 315 308 314 309 307 308 309 309 308 309 309 312 311 310 310 310 311 312 309 309 305 304 302 305 303 305 302 300 299 297 295 294
313 319 314 319 321 321 323 322 320 318 313 315 315 316 314 314 313 308 310 311 308 309 312 310 310 310 312 307 305 308 310 311 312 310 306 307 310 303 303 301 300 299 297 294 293
314 313 311 311 323 322 318 319 317 313 314 314 315 315 312 314 318 314 312 308 308 310 313 311 310 305 308 308 307 309 307 309 306 303 305 307 308 302 301 300 299 298 296 294 292
309 313 309 310 311 319 319 318 318 313 314 313 314 312 314 315 313 313 309 308 307 310 309 310 309 308 314 310 308 310 309 306 307 305 307 310 309 306 304 302 299 298 297 294 293
308 310 309 313 314 315 318 316 318 315 312 313 313 313 316 315 314 312 309 307 306 307 305 310 313 306 305 303 304 304 308 307 307 310 310 310 308 304 304 302 299 297 296 295 294
305 306 303 307 311 312 314 314 316 314 312 312 311 313 312 312 313 310 308 308 309 304 305 302 306 301 299 300 300 304 304 304 306 304 304 303 304 301 299 298 296 294 293 292 292
296 297 302 308 310 312 310 309 311 313 310 310 311 312 312 311 306 303 304 306 306 306 304 303 300 301 306 294 298 306 300 303 303 301 303 305 305 290 293 294 293 292 290 291 292
Wind_Speed
4 4 4 4 5 5 6 6 7 8 8 10 11 12 14 15 16 9 2 1 1 3 2 4 3 4 4 3 4 3 4 1 3 5 2 2 5 1 2 2 4 2 1 5 9
6 6 7 7 7 7 8 7 8 9 10 11 12 13 14 16 15 5 1 3 2 4 4 3 2 4 4 3 3 5 4 6 3 3 1 3 0 3 3 6 2 3 5 11 11
8 8 8 8 8 9 8 9 9 10 10 11 12 13 13 13 5 2 1 3 3 5 5 6 6 3 3 2 1 2 4 3 2 3 0 3 4 2 1 4 5 3 9 11 15
10 9 9 9 8 8 8 9 9 11 11 13 13 12 10 6 3 0 1 2 5 7 6 4 5 3 2 0 1 1 3 4 2 1 2 2 4 6 5 3 4 4 6 8 11
12 11 10 9 9 8 9 9 10 11 12 13 12 9 4 3 6 1 0 2 5 8 3 3 3 4 2 2 1 2 2 2 3 4 5 3 5 4 9 4 8 12 14 11 12
14 12 11 10 9 8 9 10 11 12 13 13 11 5 1 3 2 2 1 3 4 7 5 5 5 5 3 2 2 1 3 6 6 3 3 4 2 3 5 6 10 10 10 9 12
14 13 12 11 10 9 9 10 12 13 14 12 9 2 1 10 3 3 3 3 5 5 4 4 5 3 4 1 1 2 5 6 4 1 4 6 2 6 1 9 9 9 7 8 10
16 14 12 11 10 10 10 11 12 14 13 9 4 1 6 3 4 5 4 4 6 5 4 4 5 4 2 3 6 3 4 4 2 2 2 3 7 4 9 9 8 8 8 8 11
17 16 13 11 10 10 11 10 12 11 6 3 1 1 7 1 3 6 6 5 6 6 5 6 5 3 4 5 4 5 3 4 7 3 1 2 7 1 12 8 7 7 7 7 8
18 17 15 12 10 10 10 9 9 6 3 2 0 2 2 3 4 6 7 11 3 5 4 5 5 3 3 4 5 6 4 4 5 1 4 3 9 5 10 10 7 7 7 7 10
20 18 16 14 10 8 8 5 2 2 4 8 5 3 3 4 5 3 6 7 4 5 4 1 3 8 12 9 3 5 4 5 3 3 2 6 6 4 5 7 7 6 6 6 8
23 19 16 14 11 8 5 3 3 1 6 13 5 5 3 7 3 3 9 5 4 5 5 3 7 9 4 6 5 3 3 5 5 2 4 4 6 4 5 3 4 6 6 6 5
24 21 17 14 10 9 10 10 3 2 3 6 6 6 5 9 6 8 11 4 4 6 7 7 5 5 6 4 6 4 6 5 6 2 0 5 5 4 3 4 5 4 3 4 5
26 23 19 14 8 13 7 14 11 2 4 6 6 5 5 7 4 2 12 6 3 11 7 6 4 6 5 5 7 4 7 5 4 3 3 2 5 4 4 4 4 6 5 5 5
29 25 23 25 5 9 5 16 14 3 6 2 3 3 2 6 6 1 3 4 7 7 7 6 6 6 5 5 7 5 4 6 3 3 3 2 1 6 4 3 5 6 5 5 5
32 29 26 26 18 6 10 20 9 3 11 4 4 6 5 2 2 3 3 3 3 5 1 4 1 5 6 3 4 8 5 6 5 3 0 5 6 4 4 3 5 4 6 6 6
34 34 35 31 15 21 21 9 4 9 0 7 6 7 4 6 4 5 7 6 7 5 6 2 4 2 3 6 2 3 5 1 3 2 5 1 2 8 5 3 7 13 10 8 7
38 38 42 40 28 27 19 5 10 9 10 3 4 4 8 8 5 6 7 7 6 3 3 7 4 9 6 4 7 5 6 5 7 3 3 2 5 5 2 3 6 11 10 8 7
26 39 33 40 36 36 7 16 14 8 8 9 4 4 5 5 6 5 8 7 10 12 7 6 4 2 2 3 4 4 3 2 6 2 1 4 5 2 2 1 4 9 9 9 8
21 18 26 38 40 29 13 21 14 9 7 5 15 9 12 9 8 9 11 6 7 12 4 7 2 1 2 3 5 4 6 4 3 1 5 4 4 5 5 7 6 8 9 8 8
14 3 8 37 41 9 13 13 17 6 7 11 15 10 7 9 9 7 10 3 7 7 7 6 4 1 4 5 9 3 3 4 4 4 5 2 5 5 6 10 13 12 11 9 9
9 4 11 39 11 3 16 11 12 9 6 8 3 5 10 12 9 8 12 6 8 10 10 7 5 4 7 3 2 2 6 7 5 5 2 1 7 2 3 10 13 12 10 8 7
4 3 11 3 9 12 2 7 7 8 9 8 9 5 3 10 7 7 7 1 5 8 11 9 2 2 6 2 2 4 5 3 4 4 8 5 6 3 5 7 8 9 9 8 8
3 3 1 3 2 15 13 11 9 3 3 3 4 2 6 2 2 8 6 3 2 2 3 5 5 7 9 6 5 5 6 6 6 5 5 13 13 3 4 7 7 8 6 7 7
2 4 3 4 11 8 16 11 17 9 4 5 2 4 7 5 4 5 2 4 2 2 4 3 4 3 4 3 3 3 6 12 10 14 11 12 13 7 9 9 9 8 6 5 6
4 3 1 2 5 11 9 8 17 6 9 6 6 9 5 5 7 9 8 4 4 3 3 2 3 3 1 3 4 3 6 6 13 2 3 3 13 7 3 4 5 8 7 7 7
1 1 2 6 5 7 6 7 14 10 3 4 12 8 12 15 4 2 2 4 7 9 7 6 7 4 4 2 3 9 8 14 6 6 8 11 13 4 5 8 8 8 7 7 8
Wind_Direction
291 296 302 309 314 319 322 326 328 330 332 331 332 333 331 331 330 323 272 185 171 170 152 137 76 39 54 71 64 114 60 165 222 156 221 324 22 290 316 292 341 328 145 327 345
280 289 298 304 308 311 314 318 320 324 327 330 331 332 332 332 329 307 188 170 143 148 148 132 87 48 43 30 29 84 108 219 212 199 251 326 144 319 15 350 289 321 343 354 341
273 276 284 292 301 307 310 317 320 326 324 327 328 329 330 334 340 328 147 184 181 159 135 106 102 71 72 27 51 144 182 206 255 236 302 303 305 188 144 288 234 335 312 1 31
269 275 281 288 300 312 320 324 328 324 325 325 324 327 327 335 303 5 220 186 175 159 138 108 47 62 81 206 124 68 237 189 285 133 66 282 313 307 173 221 97 59 53 45 29
266 277 290 299 301 306 312 316 321 324 322 324 324 333 336 29 256 280 222 174 173 177 134 114 117 126 177 193 107 175 264 206 264 275 253 326 244 249 272 36 78 77 55 42 30
262 269 284 292 295 295 303 308 315 319 319 320 324 333 105 249 231 228 236 185 182 168 155 140 173 185 145 164 168 273 303 290 286 222 231 218 283 162 72 98 77 64 55 41 35
263 267 275 284 288 289 294 301 310 314 317 318 321 315 105 241 220 220 200 179 170 177 144 175 149 120 131 124 346 6 334 322 263 300 200 157 250 224 64 84 79 60 56 57 38
262 263 265 269 277 282 288 296 307 312 314 325 318 126 247 250 220 199 176 137 145 126 128 128 148 97 75 116 22 43 55 347 312 360 3 151 259 264 46 70 66 51 38 36 30
256 259 257 258 264 275 284 295 308 309 297 313 342 125 267 203 203 195 184 161 135 118 101 116 85 91 43 98 9 7 230 208 314 26 145 90 267 289 8 44 81 57 40 35 24
253 253 256 255 252 269 285 300 304 301 274 257 77 17 222 216 167 164 161 148 118 107 55 54 56 90 52 112 219 199 214 241 239 356 26 338 274 344 18 73 79 64 46 38 39
252 249 252 248 242 255 286 301 333 295 218 201 199 224 146 133 137 166 155 122 100 70 153 27 127 209 197 200 162 136 173 213 261 200 218 241 260 1 48 67 74 67 61 52 44
246 246 241 238 237 236 249 239 246 144 301 234 232 277 213 172 124 204 167 146 151 172 119 57 229 230 159 163 178 157 171 246 279 283 184 306 280 67 42 56 104 116 92 73 53
243 240 235 224 231 228 216 217 298 307 265 276 194 191 197 166 210 196 156 144 155 145 192 178 213 134 167 165 158 202 185 193 215 336 337 332 290 189 64 106 90 71 87 71 74
239 232 223 209 212 226 216 234 230 232 281 256 218 245 130 147 237 161 173 146 177 191 167 234 253 176 176 198 148 214 206 163 169 128 228 30 283 288 185 154 144 141 128 111 75
236 226 212 200 183 176 226 200 176 152 281 203 163 133 153 167 130 294 146 60 168 172 141 234 180 186 189 199 159 216 117 143 127 116 67 293 244 258 117 221 215 196 164 145 138
234 226 210 206 220 201 189 158 137 79 243 206 135 158 131 154 126 116 130 63 140 130 207 231 235 179 201 102 160 144 81 46 45 92 292 226 178 269 186 213 168 176 183 173 167
239 226 211 199 208 203 167 140 154 214 120 192 183 166 166 161 171 163 167 172 162 135 207 158 210 194 153 93 57 112 106 326 341 357 231 107 164 243 166 176 190 181 183 183 182
238 233 217 206 202 193 177 172 206 226 213 96 123 117 176 156 201 174 141 190 241 144 132 169 200 171 185 192 169 179 165 162 216 205 260 316 232 271 306 304 218 164 163 170 181
250 223 206 203 197 186 181 206 214 187 176 143 107 135 228 207 159 144 190 198 200 189 174 160 254 68 74 127 129 187 185 156 103 55 30 233 274 260 82 48 124 149 160 183 183
224 219 214 201 196 174 202 215 221 194 143 156 199 177 181 193 162 185 174 196 204 185 191 204 99 49 130 90 38 140 157 85 4 201 261 271 272 239 221 203 173 178 203 203 194
213 214 206 195 186 199 209 218 224 206 171 180 212 187 188 176 183 197 197 221 198 174 143 153 112 243 123 202 172 137 175 68 123 144 183 278 248 208 212 177 187 203 208 202 200
149 215 183 172 202 210 217 201 216 191 187 202 197 161 176 170 173 203 195 233 162 146 163 192 133 162 195 131 98 169 183 157 162 216 254 195 257 24 252 175 182 203 207 202 188
171 164 188 216 213 219 170 201 208 173 200 174 190 203 234 168 171 180 185 17 190 159 160 179 186 79 354 43 29 205 194 160 103 81 193 167 263 8 82 157 195 197 207 192 196
141 162 217 172 313 221 210 218 210 218 206 182 155 150 130 236 39 159 153 192 100 154 77 119 143 165 206 184 138 181 201 188 160 183 178 232 257 177 199 198 194 215 193 204 205
154 204 161 200 213 218 192 190 194 182 203 182 180 213 159 170 162 158 120 135 83 104 60 132 185 104 47 71 94 208 197 187 191 220 210 248 232 184 206 206 204 193 205 206 222
129 144 247 163 150 188 189 199 200 188 162 195 159 187 194 161 198 185 144 185 149 43 104 21 160 120 34 358 40 270 236 188 220 180 223 229 260 173 192 198 183 218 218 236 238
70 57 284 169 173 184 199 182 201 187 229 206 192 170 199 205 140 69 97 138 149 161 159 153 137 122 230 61 43 281 190 199 180 197 175 214 238 141 197 213 218 233 224 226 235